Flag for U.S.A. Weather past 2 weeks in Olympia, Washington, U.S.A.

Now
45 °F

Fog.


Feels Like: 45 °F
Forecast: 47 / 54 °F
Wind: No wind

Location: Olympia Airport

Current Time: Jan 27, 2015 at 9:29:45 AM

Latest Report: Jan 27, 2015 at 8:54 AM


Visibility: 4 mi

Pressure: 30.06 "Hg

Humidity: 97%

Dew point: 44 °F

Location of OlympiaLocation

Historic Weather in Olympia — Graph

°F

Olympia temperature yesterday

Maximum temperature yesterday: 63 °F (at 2:54 PM)
Minimum temperature yesterday: 40 °F (at 10:54 PM)
Average temperature yesterday: 47 °F

Past Weeks' High & Low Weather Summary

 TemperatureHumidityPressure
High63 °F (Jan 26, 2:54 PM)100% (Jan 16, 9:00 PM)30.46 "Hg (Jan 16, 9:00 PM)
Low29 °F (Jan 14, 10:54 PM)54% (Jan 26, 1:54 PM)29.61 "Hg (Jan 17, 10:54 PM)
Average45 °F90%30.21 "Hg
* Reported Jan 12 7:54 AM — Jan 27 7:57 AM, Olympia, Weather by CustomWeather, © 2014

Note: Actual official high and low records may vary slightly from our data, if they occured in-between our weather recording intervals... More about our weather records

Advertising

Olympia weather history for previous 24 hours

 ConditionsComfort  
Time TempWeatherWind HumidityBarometerVisibility
7:57 AM
Jan 27
45 °FFog.3 mph97%30.06 "Hg4 mi
7:01 AM45 °FMostly cloudy.6 mph97%30.03 "Hg7 mi
5:54 AM40 °FFog.No wind100%30.01 "Hg3 mi
4:54 AM39 °FFog.No wind100%30.00 "Hg1 mi
3:54 AM41 °FFog.No wind96%30.00 "Hg0 mi
2:54 AM43 °FFog.No wind97%30.01 "Hg4 mi
2:01 AM43 °FFog.3 mph97%30.00 "Hg2 mi
12:54 AM42 °FFog.No wind96%30.00 "Hg1 mi
11:54 PM
Jan 26
40 °FFog.5 mph100%30.00 "Hg1 mi
11:04 PM40 °FFog.No wind100%30.00 "Hg0 mi
10:54 PM40 °FFog.No wind100%30.00 "Hg1 mi
9:54 PM41 °FFog.5 mph96%29.98 "Hg0 mi
8:54 PM42 °FClear.No wind96%29.98 "Hg7 mi
7:54 PM47 °FClear.7 mph97%29.98 "Hg10 mi
6:54 PM47 °FClear.No wind93%29.96 "Hg9 mi
5:54 PM50 °FClear.No wind83%29.94 "Hg10 mi
4:54 PM55 °FSunny.5 mph74%29.93 "Hg10 mi
3:54 PM62 °FSunny.5 mph58%29.92 "Hg10 mi
2:54 PM63 °FSunny.6 mph54%29.92 "Hg10 mi
1:54 PM62 °FSunny.13 mph54%29.92 "Hg10 mi
12:54 PM61 °FSunny.6 mph60%29.94 "Hg10 mi
11:54 AM58 °FSunny.9 mph70%29.95 "Hg10 mi
10:54 AM53 °FSunny.7 mph80%29.97 "Hg10 mi
9:58 AM49 °FSunny.8 mph90%29.97 "Hg10 mi
Weather by CustomWeather, © 2014

See weather overviewHow to use our weather pages